Location: Stanford
(52.2833°N, 2.4333°W)
Time: 22:53:55
(UTC+00:00)

Cosmos 1606 Rocket - Pass Details

Date: 22 January 2021
Orbit: 604 x 631 km, 82.5° (Epoch: 01 March)

Event Time Altitude Azimuth Distance (km) Brightness Sun altitude
Rises 17:22:05 0° 350° (N) 2,893 6.9 -6.7°
Reaches altitude 10° 17:24:19 10° 352° (N) 1,988 6.0 -7.0°
Maximum altitude 17:28:43 75° 78° (ENE) 648 3.5 -7.6°
Drops below altitude 10° 17:33:08 10° 164° (SSE) 1,989 6.2 -8.2°
Sets 17:35:22 0° 166° (SSE) 2,894 7.1 -8.6°
